Regional Weather Roundup
Issued by NWS Kansas City/Pleasant Hill, MO

Home | Current Version | Previous Version | Graphics & Text | Print | Product List | Glossary Off
Versions: 1 2 3 4 5 6 7 8 9 10 11 12 13 14 15 16 17 18 19 20 21 22 23 24 25 26 27 28 29 30 31 32 33 34 35 36 37 38 39 40 41 42 43 44 45 46 47 48 49 50

000
ASUS43 KEAX 010210
RWREAX

WEATHER ROUNDUP FOR EASTERN KANSAS AND NORTHWEST MISSOURI
NATIONAL WEATHER SERVICE KANSAS CITY/PLEASANT HILL MO
900 PM CDT TUE SEP 30 2014

KSZ040-057-103>105-MOZ028-029-037-043-010300-
...KANSAS CITY METROPOLITAN AREA...

CITY           SKY/WX    TMP DP  RH WIND       PRES   REMARKS
K.C. INTL      PTCLDY    72  58  61 SE7       29.80R
K.C. DOWNTOWN  PTCLDY    78  58  49 SE10G23   29.79R
LEES SUMMIT    CLEAR     73  58  59 SE5       29.82R
OLATHE - IXD   PTCLDY    73  58  59 SE9       29.81R
OLATHE - OJC   PTCLDY    71  58  63 SE7       29.80R
LAWRENCE       MOCLDY    72  59  63 SE9       29.78R

$$

MOZ001>008-011>017-020>025-030>033-038>040-044>046-053-054-010300-
...NORTHERN AND CENTRAL MISSOURI...

CITY           SKY/WX    TMP DP  RH WIND       PRES   REMARKS
ST. JOSEPH     CLOUDY    75  58  55 SE10      29.78R
MOSBY          PTCLDY    72  59  64 SE3       29.80S
WHITEMAN AFB   CLEAR     70  60  69 SE7       29.83S
CLINTON        CLEAR     72  63  73 CALM      29.84R HAZE
SEDALIA        CLEAR     70  59  68 SE5       29.85R
WARSAW         NOT AVBL
MARSHALL       CLEAR     73  61  64 SE6       29.85S
CHILLICOTHE      N/A     73  63  70 E3        29.84R
MOBERLY        CLEAR     70  61  73 E6        29.88R
KIRKSVILLE     PTCLDY    66  32  28 E10       29.88S

$$

MOZ041-047>049-056>058-063>065-088>090-097-010300-
...EASTERN AND SOUTHERN MISSOURI...

CITY           SKY/WX    TMP DP  RH WIND       PRES   REMARKS
ST. LOUIS INTL NOT AVBL
SPIRIT OF STL  CLEAR    N/A N/A N/A CALM      29.87R
COLUMBIA       PTCLDY    72  58  61 E8        29.87R
JEFFERSON CITY MOCLDY    70  60  70 E3        29.85R
HANNIBAL       CLEAR     68  57  68 E5        29.90R
ROLLA          PTCLDY    70  53  54 S7        29.87R
LEBANON        CLEAR     68  55  64 S6        29.89S
OSAGE BEACH    CLEAR     70  57  64 S3        29.87R
SPRINGFIELD    CLEAR     69  56  62 SE7       29.87R
BRANSON        PTCLDY    70  57  64 SE7       29.89R
NEVADA         CLEAR     70  59  68 SE7       29.83R
JOPLIN         CLEAR     71  61  70 S8        29.83R
WEST PLAINS    CLEAR     63  54  72 CALM      29.91S

$$

IAZ060-094-KSZ022-034>040-054-083-096-NEZ052-066-093-010300-
...KANSAS...SOUTHEAST NEBRASKA AND IOWA...

CITY           SKY/WX    TMP DP  RH WIND       PRES   REMARKS
TOPEKA         MOCLDY    75  60  59 SE12      29.75S
MANHATTAN      CLOUDY    78  62  57 SE16      29.70F
EMPORIA        PTCLDY    73  62  68 SE15      29.75S
CHANUTE        CLEAR     73  62  68 SE9       29.80R
WICHITA        MOCLDY    77  60  55 S15       29.71R
OMAHA          LGT RAIN  66  62  87 SE10      29.78F
LINCOLN        MOCLDY    65  62  90 SE8       29.77R
FALLS CITY     CLOUDY    67  65  93 E5        29.76F
LAMONI         CLOUDY    67  62  84 E7        29.84R
DES MOINES     CLOUDY    67  58  72 SE13      29.85R

$$




USA.gov is the U.S. government's official web portal to all federal, state and local government web resources and services.